sat.trackr.live / text

‹ back to catalog

STARLINK-32369

NORAD 60917 · 2024-154Q

PAYLOAD ACTIVE UNKNOWN

§ Identity

Operator
Country
US
Launch date
2024-08-31
Launch site
AFETR
Launch vehicle
Mass (kg)
RCS (m²)

Purposes: comms

External: N2YO · Heavens-Above · Gunter

§ Orbital elements

Epoch: 2026-09-21T21:31:47.584128Z

Period
94.01 min
Inclination
53.1601°
Eccentricity
0.0001171
Mean motion
15.31690347 rev/d
Perigee alt
470.0 km
Apogee alt
471.6 km
Semi-major
6,848.9 km
B*
-3.3678e-5
RAAN
91.1739°
Arg perigee
96.6421°
Mean anomaly
263.4714°
Rev number
11,639

§ Raw data

STARLINK-323691 60917U 24154Q   26264.89707852 -.00001410  00000+0 -33678-4 0  99932 60917  53.1601  91.1739 0001171  96.6421 263.4714 15.31690347116395

JSON: /api/v1/satellites/60917 · /tle

For live sub-satellite position, see the globe view (requires WebGL).

§ Visibility from observer

Set your observer location to see the next 7 days of passes ≥ 10°. The values pass through the URL so the page stays shareable.

No JS? Fill the form by hand. The geolocation button needs JavaScript.